Back to catalog

SPHEREX

AliveScienceSSO
NORAD 63182·PAYLOAD·🇺🇸 United States

Launched Mar 12, 2025 from Vandenberg Space Force Base

Loading…

Next Passes (next 24 hours)

TLE

FreshSource: Space-Track

Epoch: Sep 14, 2026, 12:17 UTC

1 63182U 25047E   26257.51243363  .00000729  00000-0  11791-3 0  9997
2 63182  97.9601  80.7144 0008968 266.5230  93.4953 14.74205895 81202

Track SPHEREX in real time with AllMySat

Download on the App Store